This is the latest recevied weather packets stored in our database for station/object WA1OUI. If no packets are shown the sender has not sent any weather packets the latest 10 day(s).
| Time | Temp. | Humidity | Pressure | Rain* | Wind** | Luminosity | Snow |
|---|---|---|---|---|---|---|---|
| 1777723630 | 8.89° C | 97% | 1010.3 hPa | 0 mm | - | 42 W/m² | - |
| 1777723327 | 8.89° C | 97% | 1010.4 hPa | 0 mm | - | 36 W/m² | - |
| 1777722721 | 8.89° C | 97% | 1010.2 hPa | 0 mm | - | 32 W/m² | - |
| 1777722417 | 8.89° C | 97% | 1010.3 hPa | 0 mm | - | 24 W/m² | - |
| 1777722115 | 8.89° C | 97% | 1010.1 hPa | 0 mm | - | 51 W/m² | - |
| 1777721812 | 8.33° C | 97% | 1010.3 hPa | 0 mm | - | 55 W/m² | - |
| 1777721510 | 8.33° C | 97% | 1010.4 hPa | 0 mm | - | 48 W/m² | - |
| 1777721208 | 8.33° C | 97% | 1010.2 hPa | 0 mm | - | 47 W/m² | - |
| 1777720905 | 8.33° C | 97% | 1010 hPa | 0 mm | - | 31 W/m² | - |
| 1777720602 | 8.33° C | 97% | 1010.4 hPa | 0 mm | - | 36 W/m² | - |
| 1777720300 | 8.33° C | 97% | 1010.3 hPa | 0 mm | - | 33 W/m² | - |
| 1777719997 | 8.33° C | 97% | 1010.6 hPa | 0 mm | - | 25 W/m² | - |
| 1777719694 | 8.33° C | 97% | 1010.4 hPa | 0.51 mm | - | 23 W/m² | - |
| 1777719392 | 8.33° C | 97% | 1010.5 hPa | 3.05 mm | - | 9 W/m² | - |
| 1777719089 | 8.33° C | 97% | 1010.4 hPa | 5.33 mm | - | 10 W/m² | - |
| 1777718786 | 8.33° C | 97% | 1010.7 hPa | 3.56 mm | - | 4 W/m² | - |
| 1777718483 | 8.33° C | 97% | 1010.5 hPa | 1.27 mm | - | 2 W/m² | - |
| 1777718181 | 8.33° C | 97% | 1010.4 hPa | 0.51 mm | - | 2 W/m² | - |
| 1777717879 | 8.33° C | 97% | 1010.3 hPa | 0 mm | - | 2 W/m² | - |
| 1777717575 | 8.33° C | 96% | 1010.2 hPa | 0 mm | - | 2 W/m² | - |
| 1777717272 | 8.33° C | 96% | 1009.9 hPa | 0 mm | - | 6 W/m² | - |
| 1777716970 | 8.33° C | 96% | 1009.7 hPa | 0 mm | - | 11 W/m² | - |
| 1777716668 | 8.33° C | 96% | 1009.9 hPa | 0 mm | - | 6 W/m² | - |
| 1777716366 | 8.33° C | 96% | 1009.9 hPa | 0.51 mm | - | 3 W/m² | - |
| 1777716064 | 8.33° C | 96% | 1010 hPa | 1.27 mm | - | 1 W/m² | - |
* Rain latest hour (hover to see other rain measurements)
** Current wind speed in m/s (hover to see current wind gust speed)